Torna al catalogo

COSMOS 1823 DEB

AttivoLEO
NORAD 39815·DEBRIS·🇷🇺 Russia

Lanciato Feb 20, 1987 da Plesetsk Cosmodrome

Loading…

Prossimi Passaggi (prossime 24 ore)

TLE

In scadenzaSource: Space-Track

Epoca: Sep 12, 2026, 10:05 UTC

1 39815U 87020EP  26255.42044530  .00000020  00000-0  27043-3 0  9996
2 39815  73.5996 277.7380 0025176 112.0239 248.3484 12.42115193715881

Traccia COSMOS 1823 DEB in tempo reale con AllMySat

Download on the App Store